Weather History for Tabarka, Tunisia

Change the Weather History Date:

Tuesday, February 12, 2013

  Actual Average Record
Temperature  
Mean Temperature 47 °F -  
Max Temperature 53 °F - - ()
Min Temperature 41 °F - - ()
Degree Days  
Heating Degree Days 18    
Moisture  
Dew Point 39 °F    
Average Humidity 74    
Maximum Humidity 93    
Minimum Humidity 47    
Precipitation  
Precipitation 0.83 in - - ()
Sea Level Pressure  
Sea Level Pressure 29.77 in    
Wind  
Wind Speed 14 mph ()    
Max Wind Speed 26 mph    
Max Gust Speed -    
Visibility 5.8 miles    
Events Rain , Thunderstorm    
T = Trace of Precipitation, MM = Missing Value Source: Averaged Metar Reports

Daily Weather History Graph

Daily Weather History Graph

Search for Another Location

Airport:

Trip Planner

Search our weather history database for the weather conditions in past years. The results will help you decide how hot, cold, wet, or windy it might be!

Date:

Astronomy

Feb. 12, 2013 Rise Set
Actual Time 7:16 AM CET 6:01 PM CET
Civil Twilight 6:49 AM CET 6:28 PM CET
Nautical Twilight 6:19 AM CET 6:58 PM CET
Astronomical Twilight 5:48 AM CET 7:29 PM CET
Moon 8:09 AM CET (2/12) 8:39 PM CET (2/12)
Length of Visible Light 11h 38m
Length of Day
10h 45m
Waxing Crescent, 6% of the Moon is Illuminated
Feb 12
Waxing Crescent
Feb 17
First Quarter
Feb 25
Full
Mar 4
Last Quarter
Mar 11
New

Hourly Weather History & Observations

Time (CET) Temp. Windchill Dew Point Humidity Pressure Visibility Wind Dir Wind Speed Gust Speed Precip Events Conditions
1:00 AM 47 °F - 39 °F 65% 29.74 in 5 mi SSW 11.5 mph - -   Partly Cloudy
1:00 AM 46.4 °F 41.1 °F 39.2 °F 76% 29.71 in 5.0 mi SSW 11.5 mph - N/A   Scattered Clouds
7:00 AM 43 °F - 39 °F 81% 29.75 in 5 mi West 16.1 mph - - Rain Light Rain
7:00 AM 42.8 °F 35.1 °F 39.2 °F 87% 29.74 in 5.0 mi West 16.1 mph - N/A Rain Light Rain
8:00 AM 41.0 °F 35.2 °F 37.4 °F 87% 29.74 in 5.0 mi South 9.2 mph - N/A Rain Rain
9:00 AM 42.8 °F 36.6 °F 39.2 °F 87% 29.74 in 6.2 mi SSW 11.5 mph - N/A   Partly Cloudy
10:00 AM 44 °F - 39 °F 77% 29.77 in 7 mi SSW 16.1 mph - -   Partly Cloudy
10:00 AM 44.6 °F 38.1 °F 39.2 °F 81% 29.74 in 6.2 mi SSW 13.8 mph - N/A   Partly Cloudy
11:00 AM 46.4 °F 41.1 °F 39.2 °F 76% 29.74 in 6.2 mi SSW 11.5 mph - N/A Thunderstorm Thunderstorm
12:00 PM 50.0 °F - 39.2 °F 66% 29.74 in 6.2 mi SSW 13.8 mph - N/A   Partly Cloudy
1:00 PM 52 °F - 39 °F 50% 29.77 in 7 mi SW 21.9 mph - - Thunderstorm Light Thunderstorm
1:00 PM 51.8 °F - 39.2 °F 62% 29.74 in 6.2 mi SW 24.2 mph - N/A   Scattered Clouds
2:00 PM 50.0 °F - 37.4 °F 62% 29.77 in 6.2 mi SW 26.5 mph - N/A   Scattered Clouds
3:00 PM 51.8 °F - 37.4 °F 58% 29.74 in 6.2 mi SSW 16.1 mph - N/A   Scattered Clouds
4:00 PM 53 °F - 39 °F 47% 29.74 in 7 mi SW 26.5 mph - -   Partly Cloudy
4:00 PM 53.6 °F - 39.2 °F 58% 29.74 in 6.2 mi SW 26.5 mph - N/A   Scattered Clouds
5:00 PM 48.2 °F - 42.8 °F 82% 29.77 in 6.2 mi West 18.4 mph - N/A Rain Rain
6:00 PM 46.4 °F 39.2 °F 41.0 °F 81% 29.77 in 6.2 mi SSW 18.4 mph - N/A   Scattered Clouds
7:00 PM 46 °F - 42 °F 80% 29.81 in 6 mi SW 21.9 mph - - Rain , Thunderstorm Thunderstorms and Rain
7:00 PM 46.4 °F 38.5 °F 41.0 °F 81% 29.80 in 6.2 mi SW 21.9 mph - N/A Rain , Thunderstorm Thunderstorms and Rain
8:00 PM 44.6 °F 38.1 °F 39.2 °F 81% 29.80 in 5.0 mi SSW 13.8 mph - N/A   Scattered Clouds
9:00 PM 44.6 °F 38.1 °F 39.2 °F 81% 29.80 in 5.0 mi SSW 13.8 mph - N/A   Scattered Clouds
10:00 PM 42 °F - 38 °F 83% 29.83 in 5 mi SW 18.4 mph - - Rain Light Rain
10:00 PM 46.4 °F 39.2 °F 39.2 °F 76% 29.80 in 5.0 mi SW 18.4 mph - N/A   Scattered Clouds
11:00 PM 42.8 °F 33.3 °F 41.0 °F 93% 29.86 in 5.0 mi SW 24.2 mph - N/A Rain Rain